Location: Ferchesar
(52.6477°N, 12.4298°E)
Time: 13:08:06
(UTC+02:00)

Transit 4A - Pass Details

Date: 03 March 2021
Orbit: 869 x 975 km, 66.8° (Epoch: 16 April)

Event Time Altitude Azimuth Distance (km) Brightness Sun altitude
Rises 19:21:53 0° 319° (NW) 3,590 11.8 -14.2°
Reaches altitude 10° 19:24:30 10° 314° (NW) 2,627 11.1 -14.6°
Maximum altitude 19:30:21 51° 241° (WSW) 1,131 8.7 -15.5°
Drops below altitude 10° 19:36:01 10° 167° (SSE) 2,544 10.0 -16.3°
Sets 19:38:31 0° 163° (SSE) 3,468 10.6 -16.7°
